| time (UTC) | temp F | wind direction | speed knots | gust knots | rain 1hr in | rain 24hr in | rain mn in | humidity % | barometer mb |
| 20260901133736 | 72 | 338 | 0.0 | 0.0 | 0.00 | 0.00 | 0.00 | 71 | 948.0 |
| 20260901133235 | 72 | 338 | 0.0 | 0.0 | 0.00 | 0.00 | 0.00 | 71 | 948.0 |
| 20260901132735 | 72 | 338 | 0.0 | 0.0 | 0.00 | 0.00 | 0.00 | 71 | 948.0 |
| 20260901132235 | 72 | 338 | 0.0 | 0.0 | 0.00 | 0.00 | 0.00 | 71 | 948.0 |
| 20260901131736 | 72 | 338 | 0.0 | 0.0 | 0.00 | 0.00 | 0.00 | 71 | 948.0 |
| 20260901131254 | 71 | 338 | 0.0 | 0.0 | 0.00 | 0.00 | 0.00 | 72 | 948.0 |
| 20260901130735 | 71 | 338 | 0.0 | 0.0 | 0.00 | 0.00 | 0.00 | 72 | 948.0 |
| 20260901130250 | 71 | 338 | 0.0 | 0.0 | 0.00 | 0.00 | 0.00 | 72 | 948.0 |
| 20260901125736 | 70 | 338 | 0.0 | 0.0 | 0.00 | 0.00 | 0.00 | 71 | 948.0 |
| 20260901125237 | 70 | 338 | 0.0 | 0.0 | 0.00 | 0.00 | 0.00 | 71 | 948.0 |
| 20260901124736 | 70 | 338 | 0.0 | 0.0 | 0.00 | 0.00 | 0.00 | 71 | 948.0 |
| 20260901124237 | 70 | 338 | 0.0 | 0.0 | 0.00 | 0.00 | 0.00 | 71 | 948.0 |
| 20260901123736 | 70 | 338 | 0.0 | 0.0 | 0.00 | 0.00 | 0.00 | 71 | 948.0 |
| 20260901123236 | 70 | 338 | 0.0 | 0.0 | 0.00 | 0.00 | 0.00 | 71 | 948.0 |
| 20260901122754 | 70 | 338 | 0.0 | 0.0 | 0.00 | 0.00 | 0.00 | 71 | 948.0 |
| 20260901122236 | 70 | 338 | 0.0 | 0.0 | 0.00 | 0.00 | 0.00 | 71 | 948.0 |
| 20260901121740 | 70 | 338 | 0.0 | 0.0 | 0.00 | 0.00 | 0.00 | 71 | 948.0 |
| 20260901121235 | 70 | 338 | 0.0 | 0.0 | 0.00 | 0.00 | 0.00 | 71 | 948.0 |
| 20260901120736 | 70 | 338 | 0.0 | 0.0 | 0.00 | 0.00 | 0.00 | 71 | 948.0 |
| 20260901120236 | 70 | 338 | 0.0 | 0.0 | 0.00 | 0.00 | 0.00 | 71 | 948.0 |
| 20260901115735 | 70 | 315 | 0.0 | 0.0 | 0.00 | 0.00 | 0.00 | 71 | 948.0 |
| 20260901115256 | 70 | 0 | 0.0 | 0.0 | 0.00 | 0.00 | 0.00 | 71 | 948.0 |
| 20260901114735 | 70 | 0 | 0.0 | 0.0 | 0.00 | 0.00 | 0.00 | 71 | 948.0 |
| 20260901114253 | 70 | 0 | 0.0 | 1.7 | 0.00 | 0.00 | 0.00 | 71 | 948.0 |
| 20260901113736 | 70 | 0 | 0.0 | 1.7 | 0.00 | 0.00 | 0.00 | 71 | 948.0 |
| 20260901113239 | 70 | 0 | 1.7 | 3.5 | 0.00 | 0.00 | 0.00 | 71 | 948.0 |
| 20260901112737 | 69 | 338 | 1.7 | 3.5 | 0.00 | 0.00 | 0.00 | 71 | 948.0 |
| 20260901112235 | 69 | 338 | 0.0 | 3.5 | 0.00 | 0.00 | 0.00 | 71 | 948.0 |
| 20260901111736 | 69 | 0 | 0.0 | 0.0 | 0.00 | 0.00 | 0.00 | 71 | 948.0 |
| 20260901111236 | 69 | 0 | 0.0 | 0.0 | 0.00 | 0.00 | 0.00 | 70 | 948.0 |
| 20260901110758 | 69 | 0 | 0.0 | 0.0 | 0.00 | 0.00 | 0.00 | 70 | 948.0 |
| 20260901110258 | 70 | 0 | 0.0 | 0.0 | 0.00 | 0.00 | 0.00 | 70 | 948.0 |
| 20260901105757 | 70 | 0 | 0.0 | 0.0 | 0.00 | 0.00 | 0.00 | 70 | 948.0 |
| 20260901105236 | 70 | 338 | 0.0 | 0.0 | 0.00 | 0.00 | 0.00 | 69 | 948.0 |
| 20260901104742 | 70 | 338 | 0.0 | 0.0 | 0.00 | 0.00 | 0.00 | 69 | 948.0 |
| 20260901104235 | 71 | 338 | 0.0 | 0.9 | 0.00 | 0.00 | 0.00 | 68 | 948.0 |
| 20260901103820 | 71 | 338 | 0.0 | 0.9 | 0.00 | 0.00 | 0.00 | 68 | 948.0 |
| 20260901103235 | 72 | 338 | 0.9 | 1.7 | 0.00 | 0.00 | 0.00 | 68 | 947.0 |
| 20260901102736 | 72 | 338 | 0.0 | 1.7 | 0.00 | 0.00 | 0.00 | 68 | 947.0 |
| 20260901102300 | 72 | 0 | 0.0 | 1.7 | 0.00 | 0.00 | 0.00 | 68 | 947.0 |
| 20260901101735 | 72 | 0 | 0.0 | 2.6 | 0.00 | 0.00 | 0.00 | 67 | 947.0 |
| 20260901101338 | 73 | 0 | 0.0 | 2.6 | 0.00 | 0.00 | 0.00 | 67 | 947.0 |
| 20260901100736 | 73 | 0 | 0.0 | 2.6 | 0.00 | 0.00 | 0.00 | 67 | 947.0 |
| 20260901100244 | 73 | 338 | 2.6 | 2.6 | 0.00 | 0.00 | 0.00 | 67 | 947.0 |
| 20260901095735 | 73 | 338 | 0.0 | 1.7 | 0.00 | 0.00 | 0.00 | 68 | 947.0 |
| 20260901095235 | 73 | 338 | 0.0 | 1.7 | 0.00 | 0.00 | 0.00 | 68 | 947.0 |
| 20260901094735 | 73 | 0 | 0.9 | 2.6 | 0.00 | 0.00 | 0.00 | 67 | 947.0 |
| 20260901094236 | 73 | 0 | 0.0 | 2.6 | 0.00 | 0.00 | 0.00 | 67 | 947.0 |
| 20260901093801 | 73 | 0 | 1.7 | 2.6 | 0.00 | 0.00 | 0.00 | 67 | 947.0 |
| 20260901093235 | 73 | 22 | 0.0 | 1.7 | 0.00 | 0.00 | 0.00 | 68 | 947.0 |
| 20260901092747 | 73 | 338 | 0.0 | 0.9 | 0.00 | 0.00 | 0.00 | 68 | 947.0 |
| 20260901092236 | 73 | 338 | 0.0 | 1.7 | 0.00 | 0.00 | 0.00 | 68 | 947.0 |
| 20260901091743 | 73 | 338 | 0.0 | 1.7 | 0.00 | 0.00 | 0.00 | 67 | 947.0 |
| 20260901091234 | 73 | 338 | 0.0 | 1.7 | 0.00 | 0.00 | 0.00 | 67 | 947.0 |
| 20260901090735 | 74 | 338 | 0.0 | 1.7 | 0.00 | 0.00 | 0.00 | 67 | 947.0 |
| 20260901090236 | 74 | 338 | 0.0 | 1.7 | 0.00 | 0.00 | 0.00 | 67 | 947.0 |
| 20260901085736 | 74 | 0 | 0.0 | 1.7 | 0.00 | 0.00 | 0.00 | 68 | 947.0 |
| 20260901085305 | 74 | 270 | 0.0 | 0.0 | 0.00 | 0.00 | 0.00 | 68 | 946.0 |
| 20260901084736 | 74 | 292 | 0.0 | 0.9 | 0.00 | 0.00 | 0.00 | 68 | 946.0 |
| 20260901084248 | 74 | 292 | 0.0 | 0.9 | 0.00 | 0.00 | 0.00 | 69 | 946.0 |
| 20260901083735 | 74 | 292 | 0.9 | 2.6 | 0.00 | 0.00 | 0.00 | 69 | 946.0 |
| 20260901083242 | 74 | 225 | 0.0 | 2.6 | 0.00 | 0.00 | 0.00 | 70 | 946.0 |
| 20260901082734 | 74 | 270 | 2.6 | 2.6 | 0.00 | 0.00 | 0.00 | 70 | 946.0 |
| 20260901082235 | 74 | 0 | 0.0 | 1.7 | 0.00 | 0.00 | 0.00 | 71 | 946.0 |
| 20260901081804 | 74 | 248 | 1.7 | 1.7 | 0.00 | 0.00 | 0.00 | 71 | 946.0 |
| 20260901081236 | 74 | 292 | 0.0 | 1.7 | 0.00 | 0.00 | 0.00 | 72 | 946.0 |
| 20260901080801 | 73 | 270 | 0.0 | 1.7 | 0.00 | 0.00 | 0.00 | 73 | 946.0 |
| 20260901080236 | 72 | 292 | 0.0 | 0.0 | 0.00 | 0.00 | 0.00 | 74 | 946.0 |
| 20260901075748 | 72 | 270 | 0.0 | 2.6 | 0.00 | 0.00 | 0.00 | 74 | 946.0 |
| 20260901075234 | 71 | 270 | 0.0 | 2.6 | 0.00 | 0.00 | 0.00 | 75 | 946.0 |
| 20260901074736 | 70 | 248 | 0.0 | 2.6 | 0.00 | 0.00 | 0.00 | 76 | 946.0 |
| 20260901074235 | 69 | 270 | 0.0 | 2.6 | 0.00 | 0.00 | 0.00 | 76 | 946.0 |
| 20260901073736 | 69 | 270 | 0.0 | 0.0 | 0.00 | 0.00 | 0.00 | 76 | 946.0 |
| 20260901073235 | 68 | 270 | 0.0 | 0.0 | 0.00 | 0.00 | 0.00 | 77 | 946.0 |
| 20260901072735 | 68 | 270 | 0.0 | 0.0 | 0.00 | 0.00 | 0.00 | 76 | 946.0 |
| 20260901072252 | 67 | 270 | 0.0 | 0.0 | 0.00 | 0.00 | 0.00 | 76 | 946.0 |
| 20260901071734 | 68 | 270 | 0.0 | 0.0 | 0.00 | 0.00 | 0.00 | 76 | 946.0 |
| 20260901071244 | 67 | 270 | 0.0 | 0.0 | 0.00 | 0.00 | 0.00 | 76 | 946.0 |
| 20260901070735 | 68 | 270 | 0.0 | 0.0 | 0.00 | 0.00 | 0.00 | 77 | 946.0 |
| 20260901070257 | 67 | 248 | 0.0 | 0.0 | 0.00 | 0.00 | 0.00 | 77 | 946.0 |
| 20260901065735 | 67 | 248 | 0.0 | 1.7 | 0.00 | 0.00 | 0.00 | 77 | 946.0 |
| 20260901065252 | 67 | 248 | 0.0 | 3.5 | 0.00 | 0.00 | 0.00 | 77 | 946.0 |
| 20260901064736 | 67 | 248 | 0.0 | 3.5 | 0.00 | 0.00 | 0.00 | 77 | 945.0 |
| 20260901064236 | 67 | 248 | 0.0 | 3.5 | 0.00 | 0.00 | 0.00 | 77 | 946.0 |
| 20260901063734 | 67 | 248 | 0.0 | 1.7 | 0.00 | 0.00 | 0.00 | 77 | 945.0 |
| 20260901063234 | 67 | 248 | 1.7 | 1.7 | 0.00 | 0.00 | 0.00 | 77 | 945.0 |
| 20260901062735 | 67 | 248 | 0.0 | 0.0 | 0.00 | 0.00 | 0.00 | 77 | 945.0 |
| 20260901062234 | 67 | 248 | 0.0 | 0.0 | 0.00 | 0.00 | 0.00 | 77 | 945.0 |
| 20260901061753 | 67 | 248 | 0.0 | 0.0 | 0.00 | 0.00 | 0.00 | 77 | 945.0 |
| 20260901061235 | 67 | 248 | 0.0 | 1.7 | 0.00 | 0.00 | 0.00 | 78 | 945.0 |
| 20260901060740 | 67 | 248 | 0.0 | 1.7 | 0.00 | 0.00 | 0.00 | 78 | 945.0 |
| 20260901060235 | 67 | 248 | 0.0 | 3.5 | 0.00 | 0.00 | 0.00 | 78 | 945.0 |
| 20260901055734 | 67 | 248 | 1.7 | 3.5 | 0.00 | 0.00 | 0.00 | 78 | 945.0 |
| 20260901055236 | 66 | 248 | 0.0 | 3.5 | 0.00 | 0.00 | 0.00 | 78 | 945.0 |
| 20260901054734 | 66 | 248 | 0.0 | 1.7 | 0.00 | 0.00 | 0.00 | 78 | 945.0 |
| 20260901054256 | 66 | 248 | 0.0 | 0.0 | 0.00 | 0.00 | 0.00 | 78 | 944.0 |
| 20260901053736 | 66 | 248 | 0.0 | 0.0 | 0.00 | 0.00 | 0.00 | 78 | 944.0 |
| 20260901053248 | 66 | 248 | 0.0 | 0.0 | 0.00 | 0.00 | 0.00 | 78 | 944.0 |
| 20260901052735 | 66 | 248 | 0.0 | 0.0 | 0.00 | 0.00 | 0.00 | 77 | 944.0 |
| 20260901052236 | 66 | 248 | 0.0 | 0.0 | 0.00 | 0.00 | 0.00 | 77 | 944.0 |
| 20260901051736 | 66 | 248 | 0.0 | 0.0 | 0.00 | 0.00 | 0.00 | 77 | 944.0 |
| 20260901051235 | 66 | 248 | 0.0 | 0.0 | 0.00 | 0.00 | 0.00 | 77 | 944.0 |
| 20260901050736 | 66 | 248 | 0.0 | 0.0 | 0.00 | 0.00 | 0.00 | 77 | 944.0 |
| 20260901050236 | 66 | 248 | 0.0 | 0.0 | 0.00 | 0.00 | 0.00 | 78 | 945.0 |
| 20260901045751 | 66 | 248 | 0.0 | 0.0 | 0.00 | 0.00 | 0.00 | 78 | 945.0 |
| 20260901045235 | 66 | 248 | 0.0 | 0.0 | 0.00 | 0.00 | 0.00 | 78 | 945.0 |
| 20260901044749 | 66 | 248 | 0.0 | 0.0 | 0.00 | 0.00 | 0.00 | 79 | 945.0 |
| 20260901044235 | 65 | 248 | 0.0 | 0.0 | 0.00 | 0.00 | 0.00 | 79 | 945.0 |
| 20260901043736 | 65 | 248 | 0.0 | 0.0 | 0.00 | 0.00 | 0.00 | 79 | 945.0 |
| 20260901043235 | 65 | 248 | 0.0 | 1.7 | 0.00 | 0.00 | 0.00 | 79 | 945.0 |
| 20260901042735 | 65 | 248 | 0.0 | 1.7 | 0.00 | 0.00 | 0.00 | 80 | 945.0 |
| 20260901042235 | 64 | 248 | 0.0 | 1.7 | 0.00 | 0.00 | 0.00 | 80 | 945.0 |
| 20260901041735 | 64 | 248 | 0.0 | 0.0 | 0.00 | 0.00 | 0.00 | 80 | 945.0 |
| 20260901041254 | 64 | 248 | 0.0 | 0.0 | 0.00 | 0.00 | 0.00 | 80 | 945.0 |
| 20260901040735 | 64 | 248 | 0.0 | 0.0 | 0.00 | 0.00 | 0.00 | 80 | 945.0 |
| 20260901040239 | 64 | 248 | 0.0 | 0.0 | 0.00 | 0.00 | 0.00 | 80 | 945.0 |
| 20260901035735 | 64 | 248 | 0.0 | 1.7 | 0.00 | 0.00 | 0.00 | 80 | 945.0 |
| 20260901035235 | 63 | 248 | 0.0 | 1.7 | 0.00 | 0.00 | 0.00 | 80 | 945.0 |
| 20260901034735 | 63 | 248 | 1.7 | 1.7 | 0.00 | 0.00 | 0.00 | 80 | 945.0 |
| 20260901034235 | 63 | 248 | 0.0 | 0.0 | 0.00 | 0.00 | 0.00 | 80 | 944.0 |
| 20260901033758 | 63 | 248 | 0.0 | 0.0 | 0.00 | 0.00 | 0.00 | 80 | 945.0 |
| 20260901033234 | 63 | 225 | 0.0 | 0.0 | 0.00 | 0.00 | 0.00 | 80 | 945.0 |
| 20260901032754 | 63 | 225 | 0.0 | 0.0 | 0.00 | 0.00 | 0.00 | 80 | 945.0 |
| 20260901032234 | 63 | 225 | 0.0 | 3.5 | 0.00 | 0.00 | 0.00 | 80 | 945.0 |
| 20260901031739 | 63 | 225 | 0.0 | 3.5 | 0.00 | 0.00 | 0.00 | 80 | 944.0 |
| 20260901031238 | 63 | 270 | 0.0 | 0.0 | 0.00 | 0.00 | 0.00 | 79 | 945.0 |
| 20260901030735 | 63 | 315 | 0.0 | 0.0 | 0.00 | 0.00 | 0.00 | 79 | 945.0 |
| 20260901030235 | 62 | 315 | 0.0 | 0.0 | 0.00 | 0.00 | 0.00 | 79 | 944.0 |
| 20260901025736 | 62 | 315 | 0.0 | 0.0 | 0.00 | 0.00 | 0.00 | 79 | 944.0 |
| 20260901025258 | 62 | 315 | 0.0 | 0.0 | 0.00 | 0.00 | 0.00 | 79 | 944.0 |
| 20260901024757 | 62 | 315 | 0.0 | 0.0 | 0.00 | 0.00 | 0.00 | 79 | 944.0 |
| 20260901024255 | 62 | 315 | 0.0 | 0.0 | 0.00 | 0.00 | 0.00 | 79 | 944.0 |
| 20260901023734 | 62 | 315 | 0.0 | 0.0 | 0.00 | 0.00 | 0.00 | 78 | 944.0 |
| 20260901023242 | 62 | 315 | 0.0 | 0.0 | 0.00 | 0.00 | 0.00 | 78 | 944.0 |
| 20260901022735 | 62 | 315 | 0.0 | 0.0 | 0.00 | 0.00 | 0.00 | 78 | 944.0 |
| 20260901022318 | 62 | 315 | 0.0 | 0.0 | 0.00 | 0.00 | 0.00 | 78 | 944.0 |
| 20260901021734 | 62 | 315 | 0.0 | 0.0 | 0.00 | 0.00 | 0.00 | 77 | 944.0 |
| 20260901021234 | 62 | 315 | 0.0 | 0.0 | 0.00 | 0.00 | 0.00 | 77 | 944.0 |
| 20260901020759 | 63 | 315 | 0.0 | 0.0 | 0.00 | 0.00 | 0.00 | 77 | 944.0 |
| 20260901020235 | 63 | 315 | 0.0 | 0.0 | 0.00 | 0.00 | 0.00 | 77 | 944.0 |
| 20260901015835 | 63 | 315 | 0.0 | 0.0 | 0.00 | 0.00 | 0.00 | 77 | 944.0 |
| 20260901015235 | 63 | 315 | 0.0 | 0.0 | 0.00 | 0.00 | 0.00 | 77 | 944.0 |
| 20260901014744 | 63 | 315 | 0.0 | 0.0 | 0.00 | 0.00 | 0.00 | 76 | 944.0 |
| 20260901014234 | 63 | 315 | 0.0 | 0.0 | 0.00 | 0.00 | 0.00 | 76 | 944.0 |
| 20260901013735 | 64 | 315 | 0.0 | 0.0 | 0.00 | 0.00 | 0.00 | 76 | 944.0 |
| 20260901013234 | 64 | 315 | 0.0 | 0.0 | 0.00 | 0.00 | 0.00 | 76 | 944.0 |
| 20260901012735 | 64 | 315 | 0.0 | 0.0 | 0.00 | 0.00 | 0.00 | 76 | 944.0 |
| 20260901012301 | 64 | 315 | 0.0 | 0.0 | 0.00 | 0.00 | 0.00 | 76 | 944.0 |
| 20260901011735 | 64 | 315 | 0.0 | 0.0 | 0.00 | 0.00 | 0.00 | 76 | 944.0 |
| 20260901011248 | 64 | 315 | 0.0 | 0.0 | 0.00 | 0.00 | 0.00 | 76 | 944.0 |
| 20260901010735 | 64 | 315 | 0.0 | 0.0 | 0.00 | 0.00 | 0.00 | 76 | 944.0 |
| 20260901010244 | 64 | 315 | 0.0 | 0.0 | 0.00 | 0.00 | 0.00 | 76 | 945.0 |
| 20260901005735 | 64 | 315 | 0.0 | 0.0 | 0.00 | 0.00 | 0.00 | 76 | 945.0 |
| 20260901005234 | 64 | 315 | 0.0 | 0.0 | 0.00 | 0.00 | 0.00 | 76 | 945.0 |
| 20260901004735 | 64 | 315 | 0.0 | 0.0 | 0.00 | 0.00 | 0.00 | 76 | 944.0 |
| 20260901004235 | 64 | 315 | 0.0 | 0.0 | 0.00 | 0.00 | 0.00 | 75 | 945.0 |
| 20260901003800 | 64 | 315 | 0.0 | 0.0 | 0.00 | 0.00 | 0.00 | 75 | 945.0 |
| 20260901003235 | 64 | 315 | 0.0 | 0.0 | 0.00 | 0.00 | 0.00 | 75 | 945.0 |
| 20260901002745 | 64 | 315 | 0.0 | 0.0 | 0.00 | 0.00 | 0.00 | 75 | 945.0 |
| 20260901002234 | 64 | 315 | 0.0 | 0.0 | 0.00 | 0.00 | 0.00 | 74 | 945.0 |
| 20260901001742 | 65 | 315 | 0.0 | 0.0 | 0.00 | 0.00 | 0.00 | 74 | 945.0 |
| 20260901001235 | 65 | 315 | 0.0 | 0.0 | 0.00 | 0.00 | 0.00 | 74 | 945.0 |
| 20260901000735 | 65 | 315 | 0.0 | 0.0 | 0.00 | 0.00 | 0.00 | 74 | 945.0 |
| 20260901000235 | 65 | 315 | 0.0 | 0.0 | 0.00 | 0.00 | 0.00 | 74 | 945.0 |
| 20260831235735 | 65 | 315 | 0.0 | 0.0 | 0.00 | 0.00 | 0.00 | 74 | 945.0 |
| 20260831235301 | 65 | 315 | 0.0 | 0.0 | 0.00 | 0.00 | 0.00 | 73 | 945.0 |
| 20260831234735 | 65 | 315 | 0.0 | 0.0 | 0.00 | 0.00 | 0.00 | 73 | 945.0 |
| 20260831234248 | 65 | 315 | 0.0 | 0.0 | 0.00 | 0.00 | 0.00 | 73 | 945.0 |
| 20260831233735 | 66 | 315 | 0.0 | 0.0 | 0.00 | 0.00 | 0.00 | 73 | 945.0 |
| 20260831233235 | 66 | 315 | 0.0 | 0.0 | 0.00 | 0.00 | 0.00 | 73 | 945.0 |
| 20260831232734 | 66 | 315 | 0.0 | 0.0 | 0.00 | 0.00 | 0.00 | 73 | 945.0 |
| 20260831232234 | 66 | 315 | 0.0 | 0.0 | 0.00 | 0.00 | 0.00 | 73 | 945.0 |
| 20260831231734 | 66 | 315 | 0.0 | 0.0 | 0.00 | 0.00 | 0.00 | 72 | 945.0 |
| 20260831231234 | 66 | 315 | 0.0 | 0.0 | 0.00 | 0.00 | 0.00 | 72 | 945.0 |
| 20260831230752 | 66 | 315 | 0.0 | 0.0 | 0.00 | 0.00 | 0.00 | 72 | 945.0 |
| 20260831230234 | 66 | 315 | 0.0 | 0.0 | 0.00 | 0.00 | 0.00 | 71 | 945.0 |
| 20260831225748 | 66 | 315 | 0.0 | 0.0 | 0.00 | 0.00 | 0.00 | 71 | 945.0 |
| 20260831225234 | 66 | 315 | 0.0 | 0.0 | 0.00 | 0.00 | 0.00 | 71 | 945.0 |
| 20260831224734 | 66 | 315 | 0.0 | 0.0 | 0.00 | 0.00 | 0.00 | 71 | 945.0 |
| 20260831224235 | 66 | 315 | 0.0 | 0.0 | 0.00 | 0.00 | 0.00 | 70 | 946.0 |
| 20260831223734 | 67 | 315 | 0.0 | 0.0 | 0.00 | 0.00 | 0.00 | 70 | 946.0 |
| 20260831223234 | 67 | 315 | 0.0 | 0.0 | 0.00 | 0.00 | 0.00 | 70 | 946.0 |
| 20260831222735 | 67 | 315 | 0.0 | 0.0 | 0.00 | 0.00 | 0.00 | 69 | 945.0 |
| 20260831222253 | 67 | 315 | 0.0 | 0.0 | 0.00 | 0.00 | 0.00 | 69 | 945.0 |
| 20260831221735 | 68 | 315 | 0.0 | 0.0 | 0.00 | 0.00 | 0.00 | 69 | 945.0 |
| 20260831221251 | 68 | 315 | 0.0 | 0.9 | 0.00 | 0.00 | 0.00 | 69 | 945.0 |
| 20260831220734 | 68 | 315 | 0.0 | 1.7 | 0.00 | 0.00 | 0.00 | 69 | 945.0 |
| 20260831220236 | 68 | 315 | 0.0 | 1.7 | 0.00 | 0.00 | 0.00 | 69 | 945.0 |
| 20260831215734 | 68 | 315 | 1.7 | 1.7 | 0.00 | 0.00 | 0.00 | 68 | 945.0 |
| 20260831215234 | 68 | 315 | 0.0 | 0.0 | 0.00 | 0.00 | 0.00 | 68 | 945.0 |
| 20260831214735 | 68 | 315 | 0.0 | 0.0 | 0.00 | 0.00 | 0.00 | 67 | 946.0 |
| 20260831214234 | 69 | 315 | 0.0 | 0.0 | 0.00 | 0.00 | 0.00 | 67 | 946.0 |
| 20260831213754 | 69 | 315 | 0.0 | 0.0 | 0.00 | 0.00 | 0.00 | 66 | 946.0 |
| 20260831213234 | 69 | 315 | 0.0 | 0.0 | 0.00 | 0.00 | 0.00 | 66 | 946.0 |
| 20260831212739 | 69 | 315 | 0.0 | 0.0 | 0.00 | 0.00 | 0.00 | 65 | 946.0 |
| 20260831212234 | 70 | 315 | 0.0 | 0.0 | 0.00 | 0.00 | 0.00 | 65 | 945.0 |
| 20260831211736 | 70 | 315 | 0.0 | 0.0 | 0.00 | 0.00 | 0.00 | 65 | 945.0 |
| 20260831211235 | 70 | 315 | 0.0 | 0.0 | 0.00 | 0.00 | 0.00 | 65 | 946.0 |
| 20260831210735 | 70 | 315 | 0.0 | 0.0 | 0.00 | 0.00 | 0.00 | 65 | 946.0 |
| 20260831210258 | 70 | 315 | 0.0 | 0.0 | 0.00 | 0.00 | 0.00 | 64 | 946.0 |
| 20260831205733 | 70 | 315 | 0.0 | 0.0 | 0.00 | 0.00 | 0.00 | 64 | 945.0 |
| 20260831205254 | 70 | 315 | 0.0 | 0.0 | 0.00 | 0.00 | 0.00 | 64 | 945.0 |
| 20260831204735 | 70 | 315 | 0.0 | 0.0 | 0.00 | 0.00 | 0.00 | 63 | 945.0 |
| 20260831204239 | 70 | 315 | 0.0 | 0.0 | 0.00 | 0.00 | 0.00 | 63 | 946.0 |
| 20260831203737 | 71 | 315 | 0.0 | 0.0 | 0.00 | 0.00 | 0.00 | 63 | 945.0 |
| 20260831203235 | 71 | 315 | 0.0 | 0.0 | 0.00 | 0.00 | 0.00 | 63 | 945.0 |
| 20260831202735 | 71 | 315 | 0.0 | 0.0 | 0.00 | 0.00 | 0.00 | 62 | 945.0 |
| 20260831202235 | 71 | 315 | 0.0 | 0.0 | 0.00 | 0.00 | 0.00 | 62 | 945.0 |
| 20260831201755 | 71 | 315 | 0.0 | 0.0 | 0.00 | 0.00 | 0.00 | 62 | 945.0 |
| 20260831201255 | 71 | 315 | 0.0 | 0.0 | 0.00 | 0.00 | 0.00 | 62 | 945.0 |
| 20260831200754 | 71 | 315 | 0.0 | 0.0 | 0.00 | 0.00 | 0.00 | 62 | 945.0 |
| 20260831200234 | 71 | 315 | 0.0 | 0.0 | 0.00 | 0.00 | 0.00 | 61 | 945.0 |
| 20260831195737 | 71 | 315 | 0.0 | 0.0 | 0.00 | 0.00 | 0.00 | 61 | 945.0 |
| 20260831195235 | 72 | 315 | 0.0 | 0.0 | 0.00 | 0.00 | 0.00 | 61 | 945.0 |
| 20260831194811 | 72 | 315 | 0.0 | 0.0 | 0.00 | 0.00 | 0.00 | 61 | 945.0 |
| 20260831194235 | 72 | 315 | 0.0 | 0.0 | 0.00 | 0.00 | 0.00 | 61 | 945.0 |
| 20260831193735 | 72 | 315 | 0.0 | 0.0 | 0.00 | 0.00 | 0.00 | 61 | 945.0 |
| 20260831193255 | 72 | 315 | 0.0 | 0.0 | 0.00 | 0.00 | 0.00 | 61 | 945.0 |
| 20260831192734 | 73 | 315 | 0.0 | 0.0 | 0.00 | 0.00 | 0.00 | 61 | 945.0 |
| 20260831192331 | 73 | 315 | 0.0 | 0.0 | 0.00 | 0.00 | 0.00 | 61 | 945.0 |
| 20260831191735 | 73 | 315 | 0.0 | 0.0 | 0.00 | 0.00 | 0.00 | 61 | 945.0 |
| 20260831191236 | 73 | 315 | 0.0 | 0.0 | 0.00 | 0.00 | 0.00 | 60 | 945.0 |
| 20260831190735 | 73 | 315 | 0.0 | 0.0 | 0.00 | 0.00 | 0.00 | 60 | 945.0 |
| 20260831190233 | 74 | 315 | 0.0 | 0.0 | 0.00 | 0.00 | 0.00 | 60 | 945.0 |
| 20260831185733 | 74 | 315 | 0.0 | 0.0 | 0.00 | 0.00 | 0.00 | 60 | 945.0 |
| 20260831185235 | 74 | 315 | 0.0 | 0.0 | 0.00 | 0.00 | 0.00 | 60 | 945.0 |
| 20260831184755 | 74 | 315 | 0.0 | 0.0 | 0.00 | 0.00 | 0.00 | 59 | 945.0 |
| 20260831184233 | 74 | 315 | 0.0 | 0.0 | 0.00 | 0.00 | 0.00 | 59 | 945.0 |
| 20260831183741 | 75 | 315 | 0.0 | 0.0 | 0.00 | 0.00 | 0.00 | 59 | 945.0 |
| 20260831183233 | 75 | 315 | 0.0 | 0.9 | 0.00 | 0.00 | 0.00 | 59 | 945.0 |
| 20260831182737 | 75 | 315 | 0.0 | 0.9 | 0.00 | 0.00 | 0.00 | 59 | 945.0 |
| 20260831182234 | 75 | 315 | 0.0 | 0.9 | 0.00 | 0.00 | 0.00 | 59 | 945.0 |
| 20260831181733 | 75 | 22 | 0.0 | 0.0 | 0.00 | 0.00 | 0.00 | 59 | 945.0 |
| 20260831181259 | 75 | 22 | 0.0 | 0.0 | 0.00 | 0.00 | 0.00 | 59 | 945.0 |
| 20260831180735 | 75 | 22 | 0.0 | 0.0 | 0.00 | 0.00 | 0.00 | 59 | 945.0 |
| 20260831180257 | 75 | 22 | 0.0 | 0.0 | 0.00 | 0.00 | 0.00 | 58 | 945.0 |
| 20260831175734 | 75 | 22 | 0.0 | 0.0 | 0.00 | 0.00 | 0.00 | 58 | 945.0 |
| 20260831175241 | 75 | 22 | 0.0 | 0.0 | 0.00 | 0.00 | 0.00 | 58 | 945.0 |
| 20260831174735 | 75 | 22 | 0.0 | 0.0 | 0.00 | 0.00 | 0.00 | 57 | 945.0 |
| 20260831174237 | 75 | 22 | 0.0 | 0.0 | 0.00 | 0.00 | 0.00 | 57 | 945.0 |
| 20260831173734 | 76 | 22 | 0.0 | 0.0 | 0.00 | 0.00 | 0.00 | 57 | 945.0 |
| 20260831173233 | 76 | 22 | 0.0 | 0.0 | 0.00 | 0.00 | 0.00 | 57 | 945.0 |
| 20260831172800 | 76 | 22 | 0.0 | 0.0 | 0.00 | 0.00 | 0.00 | 57 | 945.0 |
| 20260831172234 | 76 | 22 | 0.0 | 0.0 | 0.00 | 0.00 | 0.00 | 56 | 945.0 |
| 20260831171757 | 77 | 22 | 0.0 | 0.0 | 0.00 | 0.00 | 0.00 | 56 | 945.0 |
| 20260831171233 | 77 | 22 | 0.0 | 0.0 | 0.00 | 0.00 | 0.00 | 56 | 945.0 |
| 20260831170744 | 77 | 22 | 0.0 | 0.0 | 0.00 | 0.00 | 0.00 | 55 | 945.0 |
| 20260831170233 | 78 | 22 | 0.0 | 0.0 | 0.00 | 0.00 | 0.00 | 55 | 945.0 |
| 20260831165734 | 78 | 22 | 0.0 | 0.0 | 0.00 | 0.00 | 0.00 | 55 | 945.0 |
| 20260831165233 | 78 | 22 | 0.0 | 0.0 | 0.00 | 0.00 | 0.00 | 55 | 945.0 |
| 20260831164735 | 78 | 22 | 0.0 | 0.0 | 0.00 | 0.00 | 0.00 | 55 | 945.0 |
| 20260831164259 | 78 | 22 | 0.0 | 0.0 | 0.00 | 0.00 | 0.00 | 55 | 945.0 |
| 20260831163734 | 78 | 22 | 0.0 | 0.0 | 0.00 | 0.00 | 0.00 | 55 | 945.0 |
| 20260831163245 | 78 | 22 | 0.0 | 0.0 | 0.00 | 0.00 | 0.00 | 55 | 945.0 |
| 20260831162733 | 79 | 22 | 0.0 | 0.0 | 0.00 | 0.00 | 0.00 | 55 | 945.0 |
| 20260831162240 | 79 | 22 | 0.0 | 0.0 | 0.00 | 0.00 | 0.00 | 54 | 945.0 |
| 20260831161734 | 79 | 22 | 0.0 | 0.0 | 0.00 | 0.00 | 0.00 | 54 | 945.0 |
| 20260831161234 | 79 | 22 | 0.0 | 0.0 | 0.00 | 0.00 | 0.00 | 54 | 945.0 |
| 20260831160801 | 79 | 22 | 0.0 | 0.0 | 0.00 | 0.00 | 0.00 | 54 | 945.0 |
| 20260831160234 | 80 | 22 | 0.0 | 0.0 | 0.00 | 0.00 | 0.00 | 54 | 945.0 |
| 20260831155759 | 80 | 22 | 0.0 | 0.9 | 0.00 | 0.00 | 0.00 | 54 | 945.0 |
| 20260831155233 | 80 | 292 | 0.0 | 1.7 | 0.00 | 0.00 | 0.00 | 54 | 945.0 |
| 20260831154745 | 80 | 292 | 0.0 | 1.7 | 0.00 | 0.00 | 0.00 | 54 | 945.0 |
| 20260831154234 | 80 | 22 | 0.0 | 1.7 | 0.00 | 0.00 | 0.00 | 54 | 945.0 |
| 20260831153743 | 80 | 0 | 0.0 | 0.0 | 0.00 | 0.00 | 0.00 | 54 | 945.0 |
| 20260831153233 | 80 | 315 | 0.0 | 0.9 | 0.00 | 0.00 | 0.00 | 53 | 945.0 |
| 20260831152735 | 80 | 0 | 0.0 | 1.7 | 0.00 | 0.00 | 0.00 | 53 | 945.0 |
| 20260831152234 | 80 | 0 | 0.0 | 1.7 | 0.00 | 0.00 | 0.00 | 53 | 945.0 |
| 20260831151735 | 81 | 0 | 1.7 | 1.7 | 0.00 | 0.00 | 0.00 | 54 | 945.0 |
| 20260831151234 | 81 | 315 | 0.0 | 0.0 | 0.00 | 0.00 | 0.00 | 53 | 945.0 |
| 20260831150734 | 81 | 315 | 0.0 | 0.0 | 0.00 | 0.00 | 0.00 | 53 | 945.0 |
| 20260831150249 | 81 | 315 | 0.0 | 0.0 | 0.00 | 0.00 | 0.00 | 53 | 945.0 |
| 20260831145733 | 81 | 338 | 0.0 | 0.0 | 0.00 | 0.00 | 0.00 | 53 | 945.0 |
| 20260831145235 | 82 | 0 | 0.0 | 0.0 | 0.00 | 0.00 | 0.00 | 53 | 945.0 |
| 20260831144733 | 82 | 0 | 0.0 | 0.0 | 0.00 | 0.00 | 0.00 | 53 | 945.0 |
| 20260831144233 | 82 | 0 | 0.0 | 0.0 | 0.00 | 0.00 | 0.00 | 53 | 945.0 |
| 20260831143736 | 82 | 315 | 0.0 | 0.0 | 0.00 | 0.00 | 0.00 | 53 | 945.0 |
| 20260831143233 | 82 | 292 | 0.0 | 0.9 | 0.00 | 0.00 | 0.00 | 53 | 945.0 |
| 20260831142752 | 82 | 292 | 0.0 | 0.9 | 0.00 | 0.00 | 0.00 | 53 | 945.0 |
| 20260831142234 | 82 | 292 | 0.0 | 0.9 | 0.00 | 0.00 | 0.00 | 53 | 945.0 |
| 20260831141749 | 83 | 22 | 0.0 | 0.0 | 0.00 | 0.00 | 0.00 | 53 | 945.0 |
| 20260831141234 | 83 | 315 | 0.0 | 0.0 | 0.00 | 0.00 | 0.00 | 53 | 945.0 |
| 20260831140736 | 83 | 315 | 0.0 | 0.0 | 0.00 | 0.00 | 0.00 | 53 | 946.0 |
| 20260831140235 | 84 | 315 | 0.0 | 0.0 | 0.00 | 0.00 | 0.00 | 53 | 946.0 |
| 20260831135734 | 84 | 338 | 0.0 | 0.0 | 0.00 | 0.00 | 0.00 | 52 | 946.0 |
| 20260831135234 | 84 | 315 | 0.0 | 0.0 | 0.00 | 0.00 | 0.00 | 52 | 946.0 |
| 20260831134734 | 84 | 315 | 0.0 | 0.0 | 0.00 | 0.00 | 0.00 | 52 | 946.0 |
| 20260831134254 | 84 | 315 | 0.0 | 0.0 | 0.00 | 0.00 | 0.00 | 53 | 946.0 |
| 20260831133756 | 85 | 315 | 0.0 | 0.0 | 0.00 | 0.00 | 0.00 | 53 | 946.0 |